Location: Newark
(3.0500°N, 36.0167°E)
Time: 06:49:13
(UTC+00:00)

Explorer 7 - Visible Passes

Search period start: 26 August 2019 00:00
Search period end: 05 September 2019 00:00
Orbit: 485 x 680 km, 50.3° (Epoch: 25 August)

Date Brightness Start Highest point End Pass type
(mag) Time Alt. Az. Time Alt. Az. Time Alt. Az.
26 Aug 7.2 03:01:55 10° SW 03:06:43 74° NW 03:11:37 10° NNE visible
27 Aug 9.4 01:30:09 16° SE 01:31:19 18° SE 01:34:32 10° E visible
27 Aug 7.9 03:07:19 10° WSW 03:11:45 36° NW 03:16:14 10° NNE visible
28 Aug 8.5 01:36:00 34° SE 01:36:18 34° SE 01:40:42 10° ENE visible
29 Aug 7.5 01:41:48 63° E 01:41:48 63° E 01:46:08 10° NE visible
30 Aug 7.9 01:47:32 43° N 01:47:32 43° N 01:51:04 10° NNE visible
31 Aug 8.8 01:53:11 22° NNW 01:53:11 22° NNW 01:55:31 10° N visible
01 Sep 9.5 01:58:42 11° NNW 01:58:42 11° NNW 01:59:12 10° NNW visible
